Flag for Canada Weather past 2 weeks in Norfolk, Ontario, Canada

Now
23 °F

Cold.


Feels Like: 13 °F
Forecast: 13 / 38 °F
Wind: 10 mph from Northwest

Location: Delhi CS

Current Time: Mar 28, 2015 at 8:02:47 PM

Latest Report: Mar 28, 2015 at 7:00 PM


Visibility: N/A

Pressure: 30.24 "Hg

Humidity: 55%

Dew point: 9 °F

Location of NorfolkLocation

Historic Weather in Norfolk — Graph

°F

Norfolk temperature yesterday

Maximum temperature yesterday: 34 °F (at 12:00 AM)
Minimum temperature yesterday: 16 °F (at 11:00 PM)
Average temperature yesterday: 24 °F

Past Weeks' High & Low Weather Summary

 TemperatureHumidityPressure
High47 °F (Mar 16, 3:00 PM)100% (Mar 14, 12:00 AM)30.39 "Hg (Mar 14, 12:00 AM)
Low13 °F (Mar 28, 7:00 AM)27% (Mar 19, 3:00 PM)29.66 "Hg (Mar 17, 2:00 AM)
Average30 °F74%30.08 "Hg
* Reported Mar 13 6:00 PM — Mar 28 6:00 PM, Norfolk, Weather by CustomWeather, © 2015

Note: Actual official high and low records may vary slightly from our data, if they occured in-between our weather recording intervals... More about our weather records

Advertising

Norfolk weather history for previous 24 hours

 ConditionsComfort  
Time TempWeatherWind HumidityBarometerVisibility
6:00 PM
Sat, Mar 28
24 °FCold.12 mph52%30.23 "HgN/A
5:00 PM24 °FCold.12 mph50%30.21 "HgN/A
4:00 PM26 °FChilly.10 mph45%30.20 "HgN/A
3:00 PM24 °FCold.9 mph49%30.21 "HgN/A
2:00 PM22 °FCold.10 mph49%30.22 "HgN/A
1:00 PM21 °FCold.7 mph47%30.22 "HgN/A
12:00 PM19 °FCold.7 mph46%30.23 "HgN/A
11:00 AM17 °FCold.7 mph48%30.24 "HgN/A
10:00 AM17 °FCold.6 mph49%30.22 "HgN/A
9:00 AM15 °FCold.8 mph52%30.19 "HgN/A
8:00 AM13 °FCold.7 mph62%30.18 "HgN/A
7:00 AM13 °FCold.6 mph66%30.14 "HgN/A
6:00 AM13 °FCold.6 mph67%30.10 "HgN/A
5:00 AM14 °FCold.7 mph64%30.09 "HgN/A
4:00 AM15 °FCold.6 mph65%30.08 "HgN/A
3:00 AM15 °FCold.8 mph70%30.08 "HgN/A
2:00 AM15 °FCold.9 mph72%30.08 "HgN/A
1:00 AM16 °FCold.10 mph65%30.09 "HgN/A
12:00 AM16 °FCold.8 mph69%30.09 "HgN/A
11:00 PM
Fri, Mar 27
16 °FCold.10 mph66%30.08 "HgN/A
10:00 PM17 °FCold.10 mph68%30.06 "HgN/A
9:00 PM18 °FCold.10 mph76%30.05 "HgN/A
8:00 PM18 °FCold.12 mph75%30.02 "HgN/A
Weather by CustomWeather, © 2015

See weather overviewHow to use our weather pages